586  
ASUS41 KOKX 020605  
RWROKX  
 
REGIONAL WEATHER ROUNDUP  
NATIONAL WEATHER SERVICE NEW YORK NY  
100 AM EST FRI DEC 02 2022  
 
NOTE: "FAIR" INDICATES FEW OR NO CLOUDS BELOW 12,000 FEET WITH NO  
SIGNIFICANT WEATHER AND/OR S TO VISIBILITY
.  
 
NYZ071-072-176-178-NJZ106-104-020700-  
NEW YORK CITY METRO AREA  
 
CITY SKY/WX TMP DP RH WIND PRES REMARKS
 
CENTRAL PARK CLEAR 34 19 54 W7 30.49F WCI 28  
WORLD TRD CTR NOT AVBL  
BRONX LEHMAN C N/A 34 21 60 NW6 N/A WCI 29  
LAGUARDIA ARPT CLEAR 35 18 49 W8 30.47S WCI 29  
QUEENS COLLEGE N/A 34 21 60 NW7 N/A WCI 28  
KENNEDY INTL CLEAR 33 20 58 NW7 30.49R WCI 27  
BREEZY POINT N/A 36 N/A N/A NW5 N/A WCI 32  
BROOKLYN COLL N/A 36 23 60 NW7 N/A WCI 30  
STATEN ISLAND N/A 34 21 60 NW3 N/A  
NEWARK/LIBERTY CLEAR 34 19 54 W8 30.48F WCI 27  
TETERBORO CLEAR 31 19 61 NW3 30.47F  

 
 
NYZ177-179-078>081-020700-  
LONG ISLAND NEW YORK  
 
CITY SKY/WX TMP DP RH WIND PRES REMARKS
 
JONES BEACH N/A 37 N/A N/A NW9 N/A WCI 31  
WANTAGH N/A 32 23 69 W5 N/A WCI 27  
HEMPSTEAD NOT AVBL  
MATINECOCK PT N/A 37 N/A N/A SW10G16 N/A WCI 30  
FARMINGDALE CLEAR 32 21 64 SW3 30.47S  
MACARTHUR/ISP CLEAR 31 22 69 W7 30.45S WCI 24  
STONY BROOK N/A 37 25 60 NW6 N/A WCI 33  
SHIRLEY CLEAR 29 20 69 W5 30.46R WCI 24  
MT SINAI HARB N/A 37 N/A N/A W5G10 N/A WCI 34  
WESTHAMPTON CLEAR 22 19 89 CALM 30.46R  
EAST HAMPTON FAIR 37 20 50 NW7 30.43S WCI 31  
SOUTHOLD N/A 37 25 60 NW8 N/A WCI 31  
MONTAUK N/A 40 24 53 W10G20 30.43R WCI 33  

 
 
NYZ052-065-067-020700-  
HUDSON VALLEY  
 
CITY SKY/WX TMP DP RH WIND PRES REMARKS
 
WHITE PLAINS CLEAR 31 20 63 W5 30.44S WCI 26  
LARCHMONT HARB N/A 34 N/A N/A SW8 N/A WCI 27  
CROTON ON HUDS N/A 34 N/A N/A N3 N/A  
SOMERS N/A 30 21 69 SW2 N/A  
BREWSTER N/A 32 21 64 SW2 N/A  
NEWBURGH CLEAR 27 21 80 W12 30.43F WCI 16  
MONTGOMERY CLEAR 23 17 78 SW6 30.44S WCI 16  
OTISVILLE N/A 27 21 80 W3 N/A  
WARWICK N/A 30 19 64 W3 N/A  
SUFFERN N/A 32 19 59 W5 N/A WCI 27  
POUGHKEEPSIE CLEAR 22 19 89 CALM 30.45R  
ALBANY CLOUDY 35 23 61 W10 30.42S WCI 27  

 
 
NJZ001-105-106-008-010-013-015-019>022-104-020700-  
NEW JERSEY  
 
CITY SKY/WX TMP DP RH WIND PRES REMARKS
 
NEWARK/LIBERTY CLEAR 34 19 54 W8 30.48F WCI 27  
TETERBORO CLEAR 31 19 61 NW3 30.47F  
CALDWELL CLEAR 30 18 60 S3 30.48F  
SOMERVILLE CLEAR 23 20 88 CALM 30.48S  
LINDEN FAIR 31 19 62 NW7 30.49F WCI 24  
PERTH AMBOY N/A 32 N/A N/A W9 N/A WCI 24  
SUSSEX NOT AVBL  
ANDOVER N/A 28 20 71 CALM 30.46F  
TRENTON CLEAR 28 20 71 W3 30.50R  
MILLVILLE CLEAR 23 19 85 W5 30.52S WCI 17  
ATLANTIC CITY CLEAR 29 21 72 NW8 30.51S WCI 21  
WRIGHTSTOWN CLEAR 29 20 67 W5 30.50S WCI 24  
TOMS RIVER NOT AVBL  
BELMAR CLEAR 30 23 75 W5 30.51R WCI 25  

 
 
PAZ047>061-062-071-020700-  
EASTERN PENNSYLVANIA  
 
CITY SKY/WX TMP DP RH WIND PRES REMARKS
 
PHILADELPHIA CLEAR 33 20 58 W7 30.53S WCI 27  
ALLENTOWN CLEAR 24 18 77 SW5 30.49S WCI 18  
SCRANTON CLEAR 25 18 74 CALM 30.44S  

 
 
CTZ002-004>006-009-010-012-RIZ004-006-007-MAZ004-011-015-020700-  
SOUTHERN NEW ENGLAND  
 
IN CT  
 
CITY SKY/WX TMP DP RH WIND PRES REMARKS
 
BRADLEY INTL PTCLDY 31 21 66 S3 30.40R  
HARTFORD CLEAR 34 21 59 SW6 30.43R WCI 29  
DANBURY CLEAR 31 18 58 SW5 30.45R WCI 26  
WTRBURY/OXFORD CLEAR 29 20 69 SW3 30.41S  
NORWALK HARBOR N/A 34 N/A N/A W14 N/A WCI 24  
BRIDGEPORT CLEAR 34 21 59 W8 30.46R WCI 27  
MERIDEN CLEAR 32 20 61 W5 30.44R WCI 27  
NEW HAVEN CLEAR 37 23 56 W8 30.45R WCI 31  
CHESTER FAIR 32 19 59 W6 30.41R WCI 26  
GROTON CLEAR 36 21 54 W9 30.42R WCI 29  
WILLIMANTIC CLEAR 31 21 66 SW5 30.41R WCI 26  
 
IN RI  
 
CITY SKY/WX TMP DP RH WIND PRES REMARKS
 
PROVIDENCE CLEAR 31 21 66 W7 30.40R WCI 24  
BLOCK ISLAND CLEAR 37 22 54 NW7G20 30.42R WCI 32  
WESTERLY CLEAR 34 20 56 W6 30.41R WCI 29  
 
IN MA  
 
CITY SKY/WX TMP DP RH WIND PRES REMARKS
 
BOSTON PTCLDY 36 23 59 W10 30.38R WCI 28  
WORCESTER CLEAR 30 20 66 SW6 30.34R WCI 24  
WESTFIELD CLEAR 26 22 84 CALM 30.39R  
PROVINCETOWN CLEAR 39 26 59 NW15 30.37R WCI 31  
NANTUCKET CLEAR 41 25 53 NW13 30.38R  

 
 
ANZ330-335-338-340-345-350-353-355-020700-  
COASTAL MARINE OBSERVATIONS  
 
 
STATION/POSITION TIME SKY/WX TEMP WIND PRES VSBY WAVE
 
AIR SEA DIR/SP/G HT/PER  
(UTC) (F) (DEG/KT/KT) (MB) (MI) (FT/S)  
NY HARB ENTRANCE 0540 55 290/ 16/ 19 1031.2  
20 S FIRE ISLAND 0540 54 1031.1  
GREAT SOUTH BAY NOT AVBL  
23 SSW MONTAUK P 0550 42 320/ 17/ 21 1030.9 4/ 6  
15 E BARNEGAT LI 0456 54 N/A 3/ 4  
HUDSON CANYON 0540 44 58 320/ 10/ 14 1030.4  
KINGS POINT 0530 36 48 290/ 7/ 11 1032.4  
EXECUTION ROCKS 0545 37 49 270/ 6 N/A  
WESTERN LI SOUND 0545 37 280/ 10/ 16 N/A  
CENTRAL LI SOUND NOT AVBL  
ROBBINS REEF 0530 35 290/ 12/ 13 1032.0  

 
 
>>>>>>>>>>>>>>>>>>>>>>>>>>>> KEY <<<<<<<<<<<<<<<<<<<<<<<<<<<  
> <  
> SKY/WX - SKY CONDITION/PRESENT WEATHER <  
> TMP - TEMPERATURE IN FAHRENHEIT <  
> DP - DEW POINT IN FAHRENHEIT <  
> RH - RELATIVE HUMIDITY IN PERCENT <  
> WIND - DIRECTION (FROM) AND SPEED IN MPH <  
> PRES - MEAN SEA LEVEL PRESSURE (INCHES OF HG) <  
> WCI - WIND CHILL INDEX <  
> VSB - VISIBILITY IN MILES <  
> HX - HEAT INDEX <  
> TC - TEMPERATURE IN CELSIUS <  
> VRB - VARIABLE WIND DIRECTION <  
> <  
>>>>>>>>>>>>>>>>>>>>>>>>>>>> KEY <<<<<<<<<<<<<<<<<<<<<<<<<<<  
 
 
CLICK HERE TO GO TO PREVIOUS BULLETINS.

The Nexlab NY Page
The Nexlab NJ Page
The Nexlab CT Page Main Text Page